Weather Roundup
Issued by NWS

Home | Current Version | Previous Version | Graphics & Text | Print | Product List | Glossary Off
Versions: 1 2 3 4 5 6 7 8 9 10 11 12 13 14 15 16 17 18 19 20 21 22 23 24 25 26 27 28 29 30 31 32 33 34 35 36 37 38 39 40 41 42 43 44 45 46 47 48 49 50

772
NZUS93 KARX 240659
HRRWXR

CURRENT HOURLY OBSERVATIONS ACROSS
MUCH OF THE UPPER MISSISSIPPI VALLEY
NATIONAL WEATHER SERVICE LA CROSSE WI
100 AM CST FRI FEB 24 2017


...SOUTHEAST MINNESOTA...


CITY           SKY/WX    TMP DP  RH WIND       PRES   REMARKS
ROCHESTER      CLOUDY    29  29 100 NE28G36   29.73F FOG     WCI  14
ROCHESTER/MAYO CLOUDY    30  30 100 N10G23    29.77F WCI  21
WINONA         LGT SNOW  34  32  93 N7        29.80F WCI  28
AUSTIN         CLOUDY    30  28  93 NE21G28   29.66F WCI  17
ALBERT LEA     LGT SNOW  28  28 100 N24       29.69F WCI  14
DODGE CENTER   LGT SNOW  28  27  93 NE24      29.73F WCI  14
PRESTON        LGT SNOW  31  29  94 NE20G28   29.70F WCI  18
OWATONNA         N/A    N/A N/A N/A N21G26    29.77F
FARIBAULT      LGT SNOW  27  27 100 N12G18    29.81F VSB 3/4 WCI  16
$$

...ELSEWHERE IN MINNESOTA...


CITY           SKY/WX    TMP DP  RH WIND       PRES   REMARKS
MINNEAPOLIS    CLOUDY    29  20  69 N16G28    29.87F WCI  17
INTNL FALLS    CLOUDY    10   4  76 NW6       30.07S WCI   0
DULUTH         CLOUDY    20  15  81 N10       29.94F WCI   9
RED WING       SNOW      28  27  93 NE9       29.83F VSB 1/2 WCI  20
REDWOOD FALLS  CLOUDY    29  19  66 NE13G24   29.87S WCI  19
MANKATO        LGT SNOW  27  25  92 NE20      29.81S FOG     WCI  13
WORTHINGTON    SNOW      25  24  96 N23G32    29.79R VSB 1/2 WCI  10
FAIRMONT       SNOW      27  26  96 N24       29.75F VSB 1/2 WCI  12
$$

...SOUTHWEST WISCONSIN...


CITY           SKY/WX    TMP DP  RH WIND       PRES   REMARKS
LA CROSSE      LGT SNOW  34  33  96 N9        29.77S FOG     WCI  27
PRAIRIE DU CHI MIX PCPN  33  32  96 N9        29.70R WCI  26
BOSCOBEL       LGT RAIN  35  32  88 NE10G21   29.70R WCI  27
LONE ROCK      LGT RAIN  34  30  85 E13G23    29.69R FOG     WCI  25
PLATTEVILLE    CLOUDY    34  34 100 NE24G33   29.60F WCI  21
FORT MC COY    LGT SNOW  33  32  98 W6        29.87R WCI  27
CAMP DOUGLAS   LGT SNOW  32  32 100 NW8       29.81R VSB 1   WCI  25
MAUSTON-NEW LI LGT SNOW  32  32  98 E7        29.76R WCI  26
VIROQUA        CLOUDY    33  32  99 NE13G21   29.75R WCI  23
WIS DELLS      MIX PCPN  32  31  96 NE15G29   29.68F WCI  21
$$

...ELSEWHERE IN WISCONSIN...


CITY           SKY/WX    TMP DP  RH WIND       PRES   REMARKS
MILWAUKEE      LGT RAIN  36  33  89 NE28G35   29.69F WCI  23
MADISON        HVY RAIN  33  31  92 NE20      29.67F FOG     WCI  21
GREEN BAY      SNOW      32  30  92 NE18G24   29.83F VSB 1/2 WCI  20
EAU CLAIRE     NOT AVBL
BLACK RVR FLS  SNOW      33  33 100 N7        29.83R VSB 1/2 WCI  26
MEDFORD        LGT SNOW  28  24  86 NE13      29.83R WCI  17
WAUSAU         LGT SNOW  31  27  85 NE10      29.80F FOG     WCI  22
WIS RAPIDS     LGT SNOW  31  30  96 NE18      29.77F VSB 3/4 WCI  19
MARSHFIELD     SNOW      30  29  96 VRB7      29.78F VSB 1/2 WCI  23
RICE LAKE      CLOUDY    29  23  76 N13       29.90R WCI  19
$$

...NORTHEAST IOWA...


CITY           SKY/WX    TMP DP  RH WIND       PRES   REMARKS
WATERLOO       CLOUDY    34  32  92 NE24G31   29.57F FOG     WCI  21
DUBUQUE        CLOUDY    34  34 100 NE21G33   29.59F WCI  22
DECORAH        LGT SNOW  32  32 100 NE14G28   29.64F WCI  22
MASON CITY     SNOW      31  32 100 NE32G38   29.62F VSB 1/2 WCI  16
CHARLES CITY   HVY RAIN  34  34 100 NE28G37   29.62S WCI  20
OELWEIN        LGT RAIN  34  34 100 NE28G36   29.57F WCI  20
$$

...ELSEWHERE IN IOWA...


CITY           SKY/WX    TMP DP  RH WIND       PRES   REMARKS
DES MOINES     TSTM      40  38  93 N14G37    29.57R FOG     WCI  32
IOWA CITY      CLOUDY    38  35  89 NE12G21   29.53F WCI  30
FORT DODGE     CLOUDY    34  28  80 NE22G30   29.67R WCI  22
MARSHALLTOWN   MIX PCPN  35  34  96 NE28G39   29.50F FOG     WCI  22
CEDAR RAPIDS   CLOUDY    36  36 100 NE21G30   29.52F WCI  25
$$

...NORTHERN ILLINOIS...


CITY           SKY/WX    TMP DP  RH WIND       PRES   REMARKS
CHICAGO-OHARE  LGT RAIN  40  37  89 NE21G30   29.63F WCI  30
CHICAGO-MIDWAY CLOUDY    41  38  89 NE16G22   29.61F
MOLINE         CLOUDY    41  36  82 E16       29.52F
ROCKFORD       TSTM      38  34  85 E21G37    29.60F WCI  28
PEORIA         CLOUDY    46  45  96 E9        29.49F
$$

NOTE: "FAIR" INDICATES FEW OR NO CLOUDS BELOW 12,000 FEET WITH NO
SIGNIFICANT WEATHER AND/OR OBSTRUCTIONS TO VISIBILITY. WIND
SPEEDS ARE IN MILES-PER-HOUR.




USA.gov is the U.S. government's official web portal to all federal, state and local government web resources and services.